Hourly Data Report for June 29, 2017

FISHER BRANCH (AUT)
MANITOBA

51°05'00.100" N
97°33'16.200" W
253.00 m
50309J6
71442
WSZ

Download Data

Hourly Data (June 2017)
Hourly Data Report for June 29, 2017
TIME
LST
Temp Definition
°C
Dew Point Definition
°C
Rel Hum Definition
%
Precip. Amount Definition
mm

Wind Dir Definition
10's deg

Wind Spd Definition
km/h
Visibility Definition
km
Stn Press Definition
kPa
Hmdx Definition


Wind Chill Definition


Weather Definition


00:00 13.8 13.2 96 0.0 11 6   97.67     LegendNANA
01:00 13.3 12.8 97 0.0 13 2   97.69     LegendNANA
02:00 12.6 12.1 97 0.0 9 4   97.68     LegendNANA
03:00 12.1 11.7 97 0.0 25 3   97.71     LegendNANA
04:00 11.6 11.2 97 0.0 30 5   97.72     LegendNANA
05:00 12.3 11.9 98 0.0 34 1   97.78     LegendNANA
06:00 12.9 12.5 97 0.0 10 2   97.81     LegendNANA
07:00 15.6 15.2 97 0.0 5 2   97.86     LegendNANA
08:00 16.9 16.5 97 0.0 6 9   97.92     LegendNANA
09:00 16.9 16.4 97 0.0 7 9   97.92     LegendNANA
10:00 18.2 17.3 95 0.0 14 8   97.96     LegendNANA
11:00 20.7 16.6 78 0.0 12 11   97.97 26   LegendNANA
12:00 23.0 15.9 64 0.0 13 17   97.91 28   LegendNANA
13:00 20.2 15.0 72 0.0 32 11   97.95     LegendNANA
14:00 15.3 13.3 88 0.0 24 18   98.02     LegendNANA
15:00 15.4 14.4 93 2.6 7 17   98.13     LegendNANA
16:00 15.1 13.9 92 1.7 33 2   98.21     LegendNANA
17:00 16.1 14.2 88 2.8 7 8   98.02     LegendNANA
18:00 19.5 14.0 71 0.0 16 7   97.97     LegendNANA
19:00 17.8 14.3 80 0.0 31 12   98.07     LegendNANA
20:00 16.0 13.9 87 0.0 33 9   98.07     LegendNANA
21:00 15.4 13.6 89 0.0 14 6   98.15     LegendNANA
22:00 14.9 13.8 94 0.0 8 6   98.15     LegendNANA
23:00 15.1 13.8 92 0.0 31 7   98.19     LegendNANA

Notes on Data Quality.

Legend

  • E = Estimated
  • M = Missing
  • NA = Not Available*
  • [empty] = Indicates an unobserved value
Date modified: